     2              OBSERVATION DATA    GPS                 RINEX VERSION / TYPE
teqc 1997Sep28 Simon McClusky 98/06/22                      PGM / RUN BY / DATE
                                                            COMMENT
BIT 2 OF LLI FLAGS DATA COLLECTED UNDER A-S CONDITION       COMMENT
BIT 2 OF LLI FLAGS DATA COLLECTED UNDER A-S CONDITION       COMMENT
Original Marker Name: PANA                                  COMMENT
Campaign Name: China Lake May 1998                          COMMENT
4-Character Station Name: GS06                              COMMENT
6-Character Antenna Code: ASHGD3                            COMMENT
Vertical Measurement Point: TGP                             COMMENT
Vertical Offset to Rinex Ref. Point: 0.0640                 COMMENT
Radial Measurement Point: OOH                               COMMENT
Radial Offset to Rinex Ref. Point: 0.1737                   COMMENT
Antenna Height from Field Measurement: 1.0270 m             COMMENT
Additional Antenna Identification Info.:                    COMMENT
The Whopper (700718AB)                                      COMMENT
Original XYZ: -2350961.9900 -4579594.5300 3755249.5800      COMMENT
New XYZ position is based on association with SCEC monument COMMENT
E1F4S5C8+0011. Position of that monument is believed to be  COMMENT
valid to within 1 m horizontally; vertical accuracy         COMMENT
should be no worse than 3-times this value.                 COMMENT
                                                            COMMENT
Revised Rinex header created by UCSD GPS archive for        COMMENT
GSAC on 02-Aug-2000 (2000:215) 18:47:49 GMT                 COMMENT
For assistance contact dagnew@ucsd.edu                      COMMENT
or anderson@python.ucsd.edu                                 COMMENT
                                                            COMMENT
3059 S                                                      MARKER NAME
LCS US NATIONAL IMAGERY MAPPING AGENCY                      OBSERVER / AGENCY
414 ASHTECH Z-XII3 1G00                                     REC # / TYPE / VERS
784 ASHTECH GEODETIC III                                    ANT # / TYPE
 -2351061.8412 -4579714.7940  3755411.2272                  APPROX POSITION XYZ
        0.9482        0.0000        0.0000                  ANTENNA: DELTA H/E/N
     1     1     0                                          WAVELENGTH FACT L1/2
     5    L1    L2    C1    P2    P1                        # / TYPES OF OBSERV
    30                                                      INTERVAL
  1998     5    12    15    25   30.000000                  TIME OF FIRST OBS
  1998     5    12    21    30   30.000000                  TIME OF LAST OBS
                                                            END OF HEADER
 98  5 12 15 25 30.0000000  0  7G19G 2G27G26G15G 7G13
                                  22584393.126
                                  19953283.580
     24599.54157                  19744051.552    19744057.728
    -11413.52857                  21424302.573    21424308.460
     -2938.05756                  22138142.994
                                  22138145.212    19188130.964
     31569.62056                  21779487.482    21779493.877
 98  5 12 15 26  0.0000000  0  7G19G 2G27G26G15G 7G13
    111108.05845                  22600580.166    22600588.532
                                  19951913.723
     89497.39349     61204.45547  19752993.617    19752996.991    19752991.663
    -40449.57149    -27894.19647  21420280.084    21420283.659    21420278.836
    -14457.85248     -8748.64545  22136731.393    22136726.004
                                  22136719.370    19180512.599
    141944.55049     97909.83146  21795688.782    21795695.269    21795689.425
 98  5 12 15 26 30.0000000  0  7G19G 2G27G26G15G 7G13
    244833.04649    177532.56145  23815971.583    23815978.931
                                  23815971.792    21149750.453
    136930.41749     98165.22547  20961189.124    20961193.018    20961187.728
    -61025.37349    -43927.28947  22615532.873    22615538.061    22615533.231
    -21301.10749    -14081.02645  23334593.395
                                  23334593.169    23334587.658    20372160.133
    227270.82349    164397.72546  23011096.442    23011102.161    23011096.559
 98  5 12 15 27  0.0000000  0  7G19G 2G27G26G15G 7G13
    330285.95659    244119.07655  23832245.547    23832240.412
                                  23832232.966    21148449.979
    184858.50759    135511.75157  20970306.602    20970313.473    20970308.194
    -81003.53559    -59494.71757  22611734.235    22611736.312    22611731.571
    -27522.74059    -18928.98656  23333412.053    23333408.970    23333403.881
    -18511.08057                  20364730.886                    20364736.569
    312795.96559    231040.55856  23027372.895    23027377.082    23027371.486
 98  5 12 15 27 30.0000000  0  7G19G 2G27G26G15G 7G13
    415964.04349    310881.06745  23848542.827    23848544.596
                                  23848537.277    21147187.022
    233297.55149    173256.42847  20979525.215    20979531.109    20979525.903
   -100387.20649    -74598.89647  22608044.254    22608047.770    22608043.040
    -33113.01549    -23285.06546  23332345.490    23332345.268    23332340.293
   -197597.97359    -48534.27447  20357399.228    20357404.598    20357399.559
    398501.64949    297824.07346  23043681.923    23043686.306    23043680.815
 98  5 12 15 28  0.0000000  0  7G19G 2G27G26G15G 7G13
    501905.68449    377848.40845  23864894.453    23864898.508
                                  23864891.363    21145958.877
    282248.36849    211399.88047  20988840.708    20988846.141    20988840.977
   -119170.55649    -89235.28547  22604469.295    22604473.401    22604468.677
    -38059.89949    -27139.80846  23331402.805    23331404.207    23331399.162
   -235598.88549    -78145.35847  20350168.163    20350173.239    20350168.179
    484374.69149    364738.00246  23060023.389    23060027.452    23060021.994
 98  5 12 15 28 30.0000000  0  7G19G 2G27G26G15G 7G13
    588118.80449    445027.28745  23881299.184    23881304.643    23881297.467
     -3449.25947                  21144766.833    21144771.206
    331718.41549    249947.92547  20998254.814    20998260.002    20998254.869
   -137339.98349   -103393.30347  22601011.705    22601015.871    22601011.164
    -42355.31849    -30486.91146  23330584.974    23330587.164    23330581.884
   -273063.31649   -107338.41447  20343039.261    20343043.909    20343038.879
    570402.38449    431772.42546  23076393.455    23076398.118    23076392.631
 98  5 12 15 29  0.0000000  0  7G19G 2G27G26G15G 7G13
    674611.37749    512423.93945  23897758.087    23897763.577    23897756.613
    -54937.30249     -8147.32747  21143619.738    21143623.861    21143619.211
    381728.61349    288916.87647  21007771.823    21007776.636    21007771.564
   -154908.44149   -117083.01347  22597668.135    22597672.671    22597667.999
    -45988.11449    -33317.70446  23329893.224    23329895.978    23329890.674
   -309972.10949   -136098.49847  20336015.749    20336020.352    20336015.334
    656574.56049    498919.43146  23092791.552    23092796.189    23092790.764
 98  5 12 15 29 30.0000000  0  7G19G 2G27G26G15G 7G13
    761378.27449    580034.36145  23914269.419    23914274.892    23914267.975
    -60713.34549    -12648.13947  21142520.619    21142524.758    21142520.097
    432253.81749    328287.12247  21017386.797    21017391.306    21017386.244
   -171896.57249   -130320.52847  22594435.453    22594440.028    22594435.309
    -48963.08949    -35635.89245  23329326.793    23329329.819    23329324.691
   -346317.47749   -164419.55147  20329099.233    20329104.061    20329099.078
    742894.11949    566181.28746  23109217.563    23109222.398    23109217.007
 98  5 12 15 30  0.0000000  0  7G19G 2G27G26G15G 7G13
    848418.91049    647858.01845  23930832.745    23930838.527    23930831.524
    -66216.30349    -16936.17747  21141473.423    21141477.679    21141472.978
    483299.68049    368063.08747  21027100.568    21027105.105    21027100.034
   -188286.69849   -143092.07147  22591316.293    22591321.197    22591316.424
    -51266.07549    -37430.45346  23328888.345    23328891.684    23328886.591
   -382090.33649   -192294.49947  20322292.119    20322296.786    20322291.759
    829388.44549    633579.32146  23125676.701    23125681.962    23125676.450
 98  5 12 15 30 30.0000000  0  7G19G 2G27G26G15G 7G13
    935724.91149    715888.50345  23947446.122    23947452.292    23947445.387
    -71420.30449    -20991.26747  21140483.176    21140487.386    21140482.722
    534873.78649    408250.64647  21036914.770    21036919.338    21036914.317
   -204065.24949   -155387.07047  22588313.754    22588318.703    22588313.901
    -52888.21549    -38694.44946  23328579.169    23328583.119    23328577.699
   -417306.56249   -219735.72247  20315590.696    20315595.295    20315590.313
    916087.82449    701137.10346  23142175.454    23142180.453    23142174.903
 98  5 12 15 31  0.0000000  0  8G19G 2G27G26G 4G15G 7G13
   1023258.37649    784096.17746  23964103.157    23964109.803    23964102.639
    -76362.69749    -24842.49547  21139542.636    21139546.969    21139542.201
    586937.38449    448819.65947  21046822.265    21046826.877    21046821.752
   -219247.79049   -167217.64047  22585424.579    22585429.639    22585424.754
   -259447.72155                  25070304.185    25070321.991
    -53862.97849    -39454.02946  23328393.643    23328397.852    23328392.103
   -452006.96649   -246774.99647  20308987.206    20308992.078    20308987.040
   1002984.00349    768848.23346  23158710.731    23158716.434    23158710.813
 98  5 12 15 31 30.0000000  0  8G19G 2G27G26G 4G15G 7G13
   1110974.37449    852446.16745  23980794.714    23980801.707    23980794.701
    -81101.95449    -28535.42747  21138640.625    21138645.190    21138640.319
    639455.67149    489742.96447  21056816.012    21056820.894    21056815.690
   -233845.07549   -178592.15447  22582646.794    22582651.907    22582646.994
   -465460.17449   -349770.94545  25048254.248    25048259.390    25048249.251
    -54219.47949    -39731.84846  23328325.656    23328330.003    23328324.341
   -486233.96449   -273445.37747  20302473.873    20302478.925    20302473.835
   1090063.34249    836702.12846  23175281.615    23175287.303    23175281.547
 98  5 12 15 32  0.0000000  0  8G19G 2G27G26G 4G15G 7G13
   1198924.77749    920978.74845  23997530.818    23997538.834    23997530.981
    -85607.61249    -32046.32547  21137783.051    21137788.140    21137782.857
    692486.46549    531065.63347  21066907.309    21066912.668    21066907.092
   -247795.95249   -189462.96747  22579992.142    22579997.423    22579992.198
   -581414.69749   -440125.03055  25026185.702    25026196.517    25026184.384
    -53906.23149    -39487.75446  23328384.755    23328389.775    23328383.902
   -519941.38849   -299710.88647  20296059.246    20296064.869    20296059.420
   1177374.62949    904736.74546  23191895.949    23191902.525    23191896.384
 98  5 12 15 32 30.0000000  0  8G19G 2G27G26G 4G15G 7G13
   1287127.45159    989707.94054  24014315.448    24014323.510    24014315.359
    -89874.45549    -35371.15247  21136970.828    21136976.479    21136970.813
    746037.59249    572793.76147  21077097.325    21077103.443    21077097.486
   -261085.98249   -199818.86747  22577463.003    22577468.749    22577463.174
   -697399.94759   -530503.11354  25004113.553    25004124.227    25004113.109
    -52915.62749    -38715.88846  23328572.969    23328578.682    23328572.407
   -553111.00449   -325557.33747  20289747.126    20289753.199    20289747.401
   1264908.70149    972944.92146  23208552.974    23208560.168    23208553.653
 98  5 12 15 33  0.0000000  0  8G19G 2G27G26G 4G15G 7G13
   1375566.75159   1058621.48555  24031144.426    24031153.243    24031144.825
    -93926.42249    -38528.53947  21136199.678    21136205.655    21136199.716
    800098.64249    614919.20947  21087384.749    21087391.175    21087384.929
   -273751.42449   -209688.03947  22575052.091    22575058.915    22575052.982
   -813440.18849   -620923.91845  24982030.833    24982042.641    24982030.762
    -51262.79149    -37427.96646  23328887.312    23328893.405    23328887.001
   -585733.86149   -350977.74147  20283539.139    20283545.502    20283539.423
   1352619.79549   1041291.07546  23225243.843    23225251.400    23225244.635
 98  5 12 15 33 30.0000000  0  8G19G 2G27G26G 4G15G 7G13
   1464267.18349   1127738.53045  24048023.223    24048032.734    24048024.135
    -97747.01049    -41505.63047  21135472.348    21135478.830    21135472.647
    854686.19749    657454.93447  21097772.369    21097779.038    21097772.575
   -285801.15649   -219077.45947  22572759.146    22572766.177    22572759.923
   -929531.42349   -711384.54645  24959939.152    24959951.162    24959939.579
    -48934.48949    -35613.69846  23329329.910    23329336.671    23329329.883
   -617790.20349   -375956.70147  20277438.764    20277445.556    20277439.234
   1440486.71549   1109758.64446  23241964.043    23241972.284    23241965.279
 98  5 12 15 33 59.9990000  0  8G19G 2G27G26G 4G15G 7G13
   1553241.85849   1197069.16045  24064954.732    24064964.606    24064955.521
   -101328.17249    -44296.15647  21134790.824    21134797.500    21134791.180
    909788.52549    700391.77547  21108257.798    21108264.814    21108258.193
   -297252.10449   -228000.29247  22570579.840    22570587.344    22570580.857
  -1045678.88949   -801889.06245  24937836.755    24937848.922    24937837.292
    -45935.64249    -33277.00746  23329899.894    23329907.520    23329900.146
   -649286.60749   -400499.35147  20271445.030    20271452.144    20271445.658
   1528499.61449   1178339.93246  23258712.622    23258720.817    23258713.691
 98  5 12 15 34 29.9990000  0  8G19G 2G27G26G 4G15G 7G13
   1642484.84249   1266609.06145  24081937.322    24081946.963    24081938.334
   -104667.45749    -46898.20547  21134155.349    21134162.164    21134155.740
    965413.26149    743735.69947  21118842.450    21118849.952    21118843.255
   -308125.25349   -236472.89547  22568511.087    22568518.404    22568511.780
  -1161895.13349   -892446.93645  24915721.581    24915734.197    24915722.035
    -42268.22849    -30419.33846  23330597.772    23330605.768    23330598.170
   -680225.37849   -424607.48147  20265557.363    20265564.807    20265558.210
   1616660.45149   1247036.50946  23275489.332    23275497.540    23275490.266
